Location: Antichan
(42.9728°N, 0.6667°E)
Time: 17:03:00
(UTC+00:00)

ATLAS 3B R/B - Pass Details

Date: 15 August 2020
Orbit: 1016 x 1179 km, 63.8° (Epoch: 16 September)

Event Time Altitude Azimuth Distance (km) Brightness Sun altitude
Rises 22:11:31 0° 230° (SW) 3,749 5.5 -28.0°
Reaches altitude 10° 22:14:11 10° 235° (SW) 2,796 4.8 -28.2°
Maximum altitude 22:20:35 54° 312° (NW) 1,223 3.2 -28.8°
Drops below altitude 10° 22:27:05 10° 29° (NNE) 2,837 5.3 -29.4°
Sets 22:29:49 0° 34° (NE) 3,808 6.0 -29.6°
